Stations météo

réclame
Mon MeteoGroup
St. Athan, Grande-Bretagne (3716): Température de l'air & dewpoint: 19.11.2017 01:00:00 - 25.11.2017 01:00:00 (GMT)St. Athan, Grande-Bretagne (3716): Vitesse du vent & gusts: 19.11.2017 01:00:00 - 25.11.2017 01:00:00 (GMT)St. Athan, Grande-Bretagne (3716): Direction du vent: 19.11.2017 01:00:00 - 25.11.2017 01:00:00 (GMT)St. Athan, Grande-Bretagne (3716): reduced air pressure: 19.11.2017 01:00:00 - 25.11.2017 01:00:00 (GMT)St. Athan, Grande-Bretagne (3716): visibility: 19.11.2017 01:00:00 - 25.11.2017 01:00:00 (GMT)St. Athan, Grande-Bretagne (3716): Ensoleillement: 19.11.2017 01:00:00 - 25.11.2017 01:00:00 (GMT)St. Athan, Grande-Bretagne (3716): Quantités de précipitations: 19.11.2017 01:00:00 - 25.11.2017 01:00:00 (GMT)
Date & Time tt [°C] td [°C] ff [km/h] ff [knt] fx [km/h] fx [knt] dd ppp [hPa] vv [km] sd [min] rr [mm]
25.11.2017 01:00:00 3,5 2,0 9 5 - - NW 1013,8 35 0 0,0
25.11.2017 00:00:00 3,9 2,4 13 7 - - NW 1013,7 50 - 0,0
24.11.2017 23:00:00 3,7 2,1 8 4 - - NNW 1013,6 50 0 0,4
24.11.2017 22:00:00 3,5 1,1 21 11 - - NW 1013,6 30 0 0,0
24.11.2017 21:00:00 0,9 -1,0 4 2 - - NNE 1013,0 22 0 0,0
24.11.2017 20:00:00 2,1 0,0 4 2 - - ENE 1012,6 22 0 0,0
24.11.2017 19:00:00 3,9 0,2 5 3 - - N 1012,9 30 0 0,0
24.11.2017 18:00:00 4,9 0,3 8 4 - - NW 1013,1 45 0 0,0
24.11.2017 17:00:00 5,6 0,4 8 4 - - NW 1012,9 45 0 0,0
24.11.2017 16:00:00 6,9 0,6 8 4 - - WNW 1012,4 10 0 0,0
24.11.2017 15:00:00 7,4 1,1 13 7 - - WNW 1012,3 10 42 0,0
24.11.2017 14:00:00 8,1 -0,2 9 5 - - WNW 1012,3 10 60 0,0
24.11.2017 13:00:00 8,2 1,0 11 6 - - WNW 1012,3 10 60 0,0
24.11.2017 12:00:00 7,8 1,5 5 3 - - NNE 1012,2 10 60 0,0
24.11.2017 11:00:00 7,1 3,4 11 6 - - N 1012,1 10 48 0,0
24.11.2017 10:00:00 4,9 2,5 8 4 - - N 1011,6 10 6 0,0
24.11.2017 09:00:00 3,7 1,8 8 4 - - N 1011,1 10 0 0,0
24.11.2017 08:00:00 2,4 1,2 11 6 - - NNE 1010,3 10 0 -
24.11.2017 07:00:00 2,9 1,4 8 4 - - N 1009,5 10 0 0,0
24.11.2017 06:00:00 4,4 2,1 9 5 - - NNW 1008,8 10 0 -
24.11.2017 05:00:00 5,2 2,8 2 1 - - NNW 1008,0 10 0 0,0
24.11.2017 04:00:00 5,4 4,2 8 4 - - NNW 1007,5 10 0 0,0
24.11.2017 03:00:00 4,9 4,2 8 4 - - N 1007,1 10 0 0,0
24.11.2017 02:00:00 5,1 4,0 8 4 - - N 1006,7 10 0 0,0
24.11.2017 01:00:00 6,1 4,2 4 2 - - N 1006,0 10 0 0,0
24.11.2017 00:00:00 6,2 4,2 0 0 - - N 1005,5 10 - 0,0
23.11.2017 23:00:00 7,2 4,2 8 4 - - W 1005,4 10 0 0,0
23.11.2017 22:00:00 7,3 4,1 16 9 - - SW 1005,7 10 0 0,6
23.11.2017 21:00:00 7,0 5,4 11 6 - - SSW 1006,2 3,8 0 1,2
23.11.2017 20:00:00 7,0 5,7 21 11 - - SW 1005,8 8 0 1,2
23.11.2017 19:00:00 7,7 5,0 9 5 - - S 1005,2 10 0 0,0
23.11.2017 18:00:00 7,5 3,8 4 2 - - W 1004,8 10 0 0,0
23.11.2017 17:00:00 7,9 4,0 9 5 - - NW 1003,7 10 0 0,0
23.11.2017 16:00:00 8,7 4,0 16 9 - - WNW 1002,6 10 0 0,0
23.11.2017 15:00:00 9,5 4,9 24 13 59 32 WNW 1001,5 10 0 0,4
23.11.2017 14:00:00 9,9 6,1 31 17 67 36 W 1000,6 10 36 0,4
23.11.2017 13:00:00 11,1 5,9 42 23 78 42 WSW 999,5 10 36 0,4
23.11.2017 12:00:00 10,8 4,1 46 25 78 42 W 998,6 8 18 0,0
23.11.2017 11:00:00 10,7 3,3 50 27 76 41 W 997,9 10 36 0,0
23.11.2017 10:00:00 9,1 4,3 50 27 76 41 WSW 996,8 10 18 0,0
23.11.2017 09:00:00 9,8 3,6 37 20 61 33 WSW 995,5 10 12 0,0
23.11.2017 08:00:00 8,9 1,9 31 17 55 30 W 994,2 10 0 0,0
23.11.2017 07:00:00 8,2 3,0 28 15 55 30 W 992,9 10 0 0,0
23.11.2017 06:00:00 8,1 3,4 29 16 52 28 WNW 991,9 10 0 0,0
23.11.2017 05:00:00 7,8 4,8 35 19 50 27 WNW 989,9 10 0 0,0
23.11.2017 04:00:00 8,4 6,6 35 19 50 27 WNW 987,4 10 0 0,6
23.11.2017 03:00:00 11,3 10,7 26 14 - - W 985,5 4,5 0 1,8
23.11.2017 02:00:00 12,8 10,7 26 14 - - SW 984,4 8 0 0,0
23.11.2017 01:00:00 12,8 10,6 18 10 - - SSW 984,3 10 0 -
23.11.2017 00:00:00 13,0 10,5 22 12 - - SW 984,5 10 - 0,0
22.11.2017 23:00:00 12,9 10,5 31 17 52 28 SW 984,7 10 0 0,0
22.11.2017 22:00:00 13,8 10,1 29 16 50 27 SSW 984,8 10 0 0,0
22.11.2017 21:00:00 14,3 10,4 29 16 55 30 SSW 985,0 10 0 0,0
22.11.2017 20:00:00 14,4 11,1 31 17 52 28 SSW 985,6 10 0 0,0
22.11.2017 19:00:00 14,3 11,2 31 17 52 28 SSW 986,5 10 0 0,0
22.11.2017 18:00:00 13,9 11,3 28 15 54 29 SSW 987,4 10 0 0,2
22.11.2017 17:00:00 14,2 10,7 26 14 50 27 SSW 988,3 10 0 0,0
22.11.2017 16:00:00 14,6 11,1 29 16 59 32 SSW 989,4 10 0 0,2
22.11.2017 15:00:00 14,5 12,0 18 10 46 25 S 990,2 10 0 0,0
22.11.2017 14:00:00 14,8 12,0 28 15 55 30 SSW 992,0 10 0 0,0
22.11.2017 13:00:00 14,4 12,2 29 16 57 31 SSW 992,7 10 0 0,0
22.11.2017 12:00:00 15,0 11,5 29 16 46 25 SSW 993,7 10 0 0,0
22.11.2017 11:00:00 14,8 11,2 31 17 50 27 SSW 995,2 10 0 0,0
22.11.2017 10:00:00 14,6 11,3 35 19 54 29 SW 996,0 10 0 0,0
22.11.2017 09:00:00 14,5 11,1 31 17 46 25 SW 996,4 10 0 0,0
22.11.2017 08:00:00 14,1 11,0 28 15 - - SW 997,0 10 0 0,0
22.11.2017 07:00:00 14,0 10,9 26 14 - - SSW 997,6 10 0 0,0
22.11.2017 06:00:00 14,0 10,9 28 15 48 26 SW 998,5 10 0 0,0
22.11.2017 05:00:00 14,1 11,0 34 18 50 27 SW 999,6 10 0 0,0
22.11.2017 04:00:00 13,6 10,9 26 14 50 27 SW 1000,3 10 0 0,0
22.11.2017 03:00:00 13,3 10,3 34 18 54 29 WSW 1001,0 10 0 0,0
22.11.2017 02:00:00 13,6 11,7 35 19 46 25 WSW 1001,5 10 0 0,0
22.11.2017 01:00:00 13,3 12,7 28 15 - - WSW 1002,5 10 0 0,6
22.11.2017 00:00:00 12,9 12,6 22 12 - - WSW 1003,0 7 - 2,4
21.11.2017 23:00:00 13,1 12,5 24 13 - - WSW 1003,4 8 0 -
21.11.2017 22:00:00 13,4 12,6 26 14 - - WSW 1003,8 10 0 0,2
21.11.2017 21:00:00 13,1 12,6 26 14 - - WSW 1003,9 10 0 0,6
21.11.2017 20:00:00 13,1 12,4 29 16 46 25 WSW 1004,3 8 0 0,8
21.11.2017 19:00:00 13,1 12,1 29 16 - - WSW 1004,9 5 0 1,2
21.11.2017 18:00:00 13,6 11,6 28 15 - - WSW 1005,5 10 0 0,0
21.11.2017 17:00:00 13,9 11,4 28 15 - - SW 1006,0 10 0 0,0
21.11.2017 16:00:00 13,7 11,4 16 9 - - SW 1006,6 10 0 0,0
21.11.2017 15:00:00 13,3 11,5 21 11 - - WSW 1007,4 10 0 0,0
21.11.2017 14:00:00 13,4 11,3 18 10 - - SW 1008,0 10 0 0,0
21.11.2017 13:00:00 12,8 10,7 15 8 - - SW 1009,1 10 0 0,0
21.11.2017 12:00:00 12,5 10,1 18 10 - - SW 1010,1 10 0 0,0
21.11.2017 11:00:00 12,3 9,9 15 8 - - SW 1010,9 10 0 0,0
21.11.2017 10:00:00 12,0 9,7 18 10 - - SW 1011,5 10 0 -
21.11.2017 09:00:00 11,8 9,7 21 11 - - WSW 1011,7 10 0 0,0
21.11.2017 08:00:00 11,6 9,6 16 9 - - WSW 1011,8 10 0 0,0
21.11.2017 07:00:00 11,6 9,5 22 12 - - WSW 1011,7 10 0 0,0
21.11.2017 06:00:00 11,7 9,9 24 13 - - WSW 1011,8 10 0 0,0
21.11.2017 05:00:00 11,8 10,0 26 14 - - WSW 1012,3 10 0 0,0
21.11.2017 04:00:00 11,8 10,2 21 11 - - W 1012,5 10 0 0,0
21.11.2017 03:00:00 12,0 10,3 24 13 - - W 1012,7 10 0 0,0
21.11.2017 02:00:00 12,1 10,7 18 10 - - W 1012,9 10 0 0,0
21.11.2017 01:00:00 12,1 10,9 21 11 - - WSW 1013,1 10 0 0,0
21.11.2017 00:00:00 12,1 11,2 22 12 - - WSW 1013,4 10 - 0,0
20.11.2017 23:00:00 12,2 11,5 26 14 - - W 1013,4 10 0 0,0
20.11.2017 22:00:00 12,2 11,8 28 15 - - W 1013,2 10 0 0,2
20.11.2017 21:00:00 12,2 11,9 28 15 - - W 1013,8 5 0 0,4
20.11.2017 20:00:00 12,1 11,9 26 14 - - W 1013,9 2,2 0 0,2
20.11.2017 19:00:00 12,1 11,9 28 15 50 27 W 1014,0 2,8 0 0,4
20.11.2017 18:00:00 12,2 11,9 34 18 50 27 W 1013,7 3,5 0 0,2
20.11.2017 17:00:00 12,0 11,9 28 15 50 27 W 1013,4 3,6 0 2,0
20.11.2017 16:00:00 11,9 11,8 35 19 54 29 W 1013,6 2,5 0 -
20.11.2017 15:00:00 12,0 11,8 29 16 50 27 W 1014,0 2,0 0 3,4
20.11.2017 14:00:00 12,1 11,6 35 19 50 27 W 1013,9 3,0 0 0,6
20.11.2017 13:00:00 12,0 11,5 35 19 55 30 WSW 1014,1 7 0 0,0
20.11.2017 12:00:00 11,9 11,3 31 17 54 29 WSW 1014,7 10 0 0,6
20.11.2017 11:00:00 11,8 11,2 35 19 55 30 W 1015,4 3,5 0 0,2
20.11.2017 10:00:00 11,7 11,1 31 17 52 28 WSW 1015,7 7 0 0,4
20.11.2017 09:00:00 11,7 10,9 37 20 54 29 W 1015,9 3,5 0 0,4
20.11.2017 08:00:00 11,7 10,6 31 17 54 29 WSW 1015,9 10 0 0,0
20.11.2017 07:00:00 11,1 10,4 35 19 59 32 WSW 1016,3 5 0 0,2
20.11.2017 06:00:00 11,1 10,5 31 17 50 27 WSW 1016,5 5 0 -
20.11.2017 05:00:00 10,4 9,8 34 18 48 26 WSW 1017,3 4,2 0 0,2
20.11.2017 04:00:00 11,2 8,8 29 16 - - WSW 1017,8 10 0 0,0
20.11.2017 03:00:00 11,0 8,5 24 13 - - SW 1018,5 10 0 0,0
20.11.2017 02:00:00 11,0 8,7 22 12 - - WSW 1019,1 10 0 0,0
20.11.2017 01:00:00 11,2 8,1 24 13 - - WSW 1020,0 10 0 0,0
20.11.2017 00:00:00 11,1 8,9 21 11 - - SW 1020,7 10 - 0,2
19.11.2017 23:00:00 10,9 9,3 21 11 - - SW 1021,3 10 0 0,0
19.11.2017 22:00:00 10,7 9,6 18 10 - - WSW 1022,0 10 0 0,0
19.11.2017 21:00:00 10,0 8,7 4 2 - - S 1022,4 8 0 0,0
19.11.2017 20:00:00 9,6 8,5 4 2 - - SW 1022,7 10 0 0,0
19.11.2017 19:00:00 9,7 7,4 8 4 - - SSW 1022,9 10 0 0,0
19.11.2017 18:00:00 8,2 5,7 2 1 - - E 1023,1 10 0 0,0
19.11.2017 17:00:00 8,3 5,4 5 3 - - ESE 1023,5 10 0 0,0
19.11.2017 16:00:00 9,0 5,3 4 2 - - SSE 1023,9 10 0 0,0
19.11.2017 15:00:00 9,4 4,9 4 2 - - SSE 1024,1 10 24 0,0
19.11.2017 14:00:00 10,2 4,3 5 3 - - SSE 1024,2 10 60 0,0
19.11.2017 13:00:00 10,0 4,8 5 3 - - SSW 1024,4 10 24 0,0
19.11.2017 12:00:00 10,1 4,4 5 3 - - W 1024,9 10 60 0,0
19.11.2017 11:00:00 7,7 5,6 4 2 - - NNE 1024,9 10 24 0,0
19.11.2017 10:00:00 6,4 5,0 2 1 - - N 1024,8 10 12 0,0
19.11.2017 09:00:00 4,3 3,7 4 2 - - NNE 1024,6 10 0 0,0
19.11.2017 08:00:00 4,4 3,9 4 2 - - NNE 1024,6 10 0 -
19.11.2017 07:00:00 4,0 3,6 4 2 - - N 1024,2 10 0 0,0
19.11.2017 06:00:00 3,7 3,3 4 2 - - N 1024,0 9 0 0,0
19.11.2017 05:00:00 3,2 2,7 4 2 - - N 1023,8 9 0 0,0
19.11.2017 04:00:00 4,7 4,0 4 2 - - NNW 1023,5 10 0 0,0
19.11.2017 03:00:00 4,5 3,5 8 4 - - N 1023,5 10 0 0,0
19.11.2017 02:00:00 5,1 3,4 4 2 - - NNW 1023,2 10 0 0,0
19.11.2017 01:00:00 7,6 5,1 4 2 - - NNW 1023,0 10 0 0,0

tt = Température de l'air
td = dewpoint
ff = Vitesse du vent
fx = gusts
dd = Direction du vent
ppp = reduced air pressure
vv = visibility
sd = Ensoleillement
rr = Quantités de précipitations

stations d'obs. à proximité